Location: Lansingburgh
(42.7845°N, 73.6696°W)
Time: 21:57:57
(UTC+00:00)

YAOGAN 1 - Pass Details

Date: 24 January 2020
Orbit: 619 x 621 km, 98.0° (Epoch: 20 February)

Event Time Altitude Azimuth Distance (km) Brightness Sun altitude
Rises 22:28:32 0° 133° (SE) 2,887 5.7 -6.2°
Reaches altitude 10° 22:31:03 10° 119° (ESE) 1,986 4.8 -6.6°
Maximum altitude 22:34:28 23° 67° (ENE) 1,315 3.6 -7.2°
Drops below altitude 10° 22:37:54 10° 14° (NNE) 1,997 4.9 -7.8°
Sets 22:40:26 0° 1° (N) 2,907 5.8 -8.2°
